Search your local weather  

 

Hazardous Weather Conditions

No active alerts for DENVER, COLORADO

Current Conditions: DENVER, COLORADO

Fair


34.0 F

Last Updated on Jan 26 2020, 4:54 am MST
Humidity: 51%
Wind Speed: N 8.1 mph
Barometer 30.04 in
Dewpoint: 17.6 F
Visibility: 10.00 mi
Precip: --
Heat Index: NA
Wind Chill: 27 F
Current conditions at:

Broomfield / Jeffco, CO (KBJC)

Lat: 39.90085 Lon: -105.10417

Local Radar Image active severe weather and emergency alerts image image weather storm and storm spotter reports image weather observation monitoring service image
Local
Radar
Active
Alerts
Storm Reports Weather
Monitoring

5 Day Forecast for DENVER, COLORADO (80202)

Sunday

Mostly Cloudy

High 57 °F
Sunday
Night
Snow

Low 30 °F
Monday

Chance of Snow
High 47 °F
Monday
Night
Chance of Snow
Low 26 °F
Tuesday

Partly Sunny

High 52 °F
Tuesday
Night
Snow

Low 27 °F
Wednesday

Chance of Snow
High 44 °F
Wednesday
Night
Partly Cloudy

Low 24 °F
Thursday

Slight Chance of Snow
High 48 °F

Sign-up For Email & Text Message Weather Alert Notification Services



Advertise Here

Observation History for DENVER, COLORADO


Time Wind
(mph)
Vis
(mi)
Weather Precip (in) Temperature (F) Relative
Humidity
Wind
Chill
(F)
Heat
Index
(F)
Pressure
Air Dwpt altimeter
(in)
sea level
(mb)
4:54 am MST N 8.1 10.00 Fair -- 34.0 17.6 51% 27 NA 30.04 M
3:54 am MST N 0.0 10.00 Fair -- 37.0 17.6 45% NA NA 30.04 M
2:54 am MST N 0.0 10.00 Fair -- 37.0 17.6 45% NA NA 30.04 M
1:54 am MST NW 9.2 10.00 Partly Cloudy -- 39.0 17.6 42% 33 NA 30.05 M
12:54 am MST N 0.0 10.00 Fair -- 37.0 15.8 41% NA NA 30.04 M
11:53 pm MST NE 3.5 10.00 Partly Cloudy -- 39.0 15.8 39% NA NA 30.06 M
10:54 pm MST SE 4.6 10.00 Partly Cloudy -- 41.0 15.8 36% 38 NA 30.04 M
9:54 pm MST N 0.0 10.00 Partly Cloudy -- 41.0 14.0 33% NA NA 30.03 M
8:47 pm MST SE 4.6 30.00 Partly Cloudy -- 43.0 14.0 31% 40 NA 30.01 M
7:47 pm MST S 5.8 30.00 Partly Cloudy -- 41.0 12.2 31% 37 NA 30.00 M
6:47 pm MST W 16.1 30.00 Partly Cloudy -- 41.0 12.2 31% 33 NA 30.00 M
5:47 pm MST W 17.3 G 24.2 10.00 Mostly Cloudy -- 45.0 12.2 27% 38 NA 29.99 M
4:47 pm MST W 17.3 10.00 Mostly Cloudy -- 48.0 12.2 23% 42 NA 29.98 M
3:45 pm MST W 13.8 G 25.3 10.00 Partly Cloudy -- 50.0 12.2 22% 45 NA 29.98 M
2:50 pm MST W 23.0 G 34.5 10.00 Partly Cloudy and Breezy -- 50.0 14.0 24% 43 NA 29.98 M
1:45 pm MST W 26.5 G 32.2 10.00 Partly Cloudy and Windy -- 54.0 14.0 21% 48 NA 29.97 M
12:50 pm MST W 5.8 10.00 A Few Clouds -- 54.0 12.2 19% 53 NA 29.97 M
11:45 am MST W 11.5 G 17.3 10.00 A Few Clouds -- 54.0 15.8 22% 51 NA 30.00 M
10:45 am MST W 16.1 G 21.9 10.00 A Few Clouds -- 50.0 17.6 28% 44 NA 30.04 M
9:45 am MST S 3.5 10.00 A Few Clouds -- 46.0 21.2 37% NA NA 30.03 M
8:45 am MST S 3.5 10.00 A Few Clouds -- 39.0 21.2 48% NA NA 30.02 M
7:45 am MST 3.5 10.00 Partly Cloudy -- 32.0 21.2 64% NA NA 30.01 M
6:45 am MST 3.5 10.00 Partly Cloudy -- 30.0 19.4 64% NA NA 30.00 M
5:45 am MST N 0.0 10.00 Partly Cloudy -- 37.0 19.4 48% NA NA 29.98 M

Regional Weather Observation

Erie Municipal Airport, CO (KEIK)

Fair
22.0 F

Boulder Municipal Airport, CO (KBDU)

Fair
32.0 F

Fort Collins/Loveland - Northern Colorado Regional Airport, CO (KFNL)

Fair
30.0 F

Buckley Air Force Base Airport, CO (KBKF)

A Few Clouds
33.0 F

Denver, Denver International Airport, CO (KDEN)

A Few Clouds
33.0 F

Denver - Centennial Airport, CO (KAPA)

A Few Clouds
32.0 F

Advertise Here


Advertise Here